Regional Weather Roundup
Issued by NWS Albany, NY

Home | Current Version | Previous Version | Text Only | Print | Product List | Glossary On
Versions: 1 2 3 4 5 6 7 8 9 10 11 12 13 14 15 16 17 18 19 20 21 22 23 24 25 26 27 28 29 30 31 32 33 34 35 36 37 38 39 40 41 42 43 44 45 46 47 48 49
000
ASUS41 KALY 251610
RWRALY

NEW YORK STATE HOURLY WEATHER ROUNDUP
NATIONAL WEATHER SERVICE ALBANY NY
1100 AM EST SUN JAN 25 2015

NOTE: "FAIR" INDICATES FEW OR NO CLOUDS BELOW 12,000 FEET WITH NO
SIGNIFICANT WEATHER AND/OR NO OBSTRUCTIONS TO VISIBILITY.

NYZ032-033-038>043-046>054-057>066-NYZ062>081-251700-
EAST


CITY           SKY/WX    TMP DP  RH WIND       PRES   REMARKS
ALBANY         MOSUNNY   28   9  44 NW16G25   29.77R WCI  16
GLENS FALLS    SUNNY     26   7  44 N13       29.74R WCI  15
POUGHKEEPSIE   SUNNY     37  16  42 W12G25    29.73R WCI  29
NEWBURGH       MOSUNNY   34  18  51 NW17G29   29.75R WCI  23
MONTGOMERY     SUNNY     35  14  42 NW14G25   29.73R WCI  26
WHITE PLAINS   MOSUNNY   37  22  54 NW13      29.70R WCI  29
ISLIP          PTSUNNY   40  24  53 W18G28    29.71R WCI  31
NEW YORK CITY  PTSUNNY   41  27  57 NW14      29.74S
CENTRAL PARK   MOSUNNY   41  25  53 NW7G18    29.76R
$$

NYZ005>009-017-018-044>046-055-056-251700-
CENTRAL


CITY           SKY/WX    TMP DP  RH WIND       PRES   REMARKS
FULTON         PTSUNNY   16   5  62 N8        29.90R WCI   5
SYRACUSE       MOSUNNY   16   8  71 NW14      29.88R WCI   2
ROME           SUNNY     17   6  62 W10       29.86R WCI   5
ELMIRA         SUNNY     28   7  41 N8        29.82R WCI  20
BINGHAMTON     PTSUNNY   21  11  65 NW14G20   29.75R WCI   8
MONTICELLO     SUNNY     27  12  54 NW17G25   29.72R WCI  14
$$

NYZ026>034-041>043-251700-
NORTH


CITY           SKY/WX    TMP DP  RH WIND       PRES   REMARKS
WATERTOWN      SUNNY     12  -1  56 NW7       29.91R WCI   1
FORT DRUM      NOT AVBL
MASSENA        SUNNY      7  -5  57 W12       29.89R WCI  -8
SARANAC LAKE     N/A      3  -5  69 VRB6      29.67R WCI  -8
PLATTSBURGH    SUNNY     15  -1  49 W9G20     29.77R WCI   3
$$

NYZ001>004-010>016-019>021-251700-
WEST


CITY           SKY/WX    TMP DP  RH WIND       PRES   REMARKS
NIAGARA FALLS  LGT SNOW  15   9  76 N12       29.93R WCI   2
BUFFALO        LGT SNOW  16   9  74 N9        29.92R WCI   4
DUNKIRK        CLOUDY    18  12  77 NE10      29.93R WCI   6
JAMESTOWN      CLOUDY    18  10  73 N6        29.81R WCI   9
WELLSVILLE     MOSUNNY   22   7  52 VRB6      29.77R WCI  14
ROCHESTER      LGT SNOW  17  10  74 NW10      29.91R WCI   5
PENN YAN       LGT SNOW  20  11  68 NW9       29.85R WCI   9
$$

             KEY
       WCI = WIND CHILL INDEX
       VSB = VISIBILITY
       HX  = HEAT INDEX
$$


USA.gov is the U.S. government's official web portal to all federal, state and local government web resources and services.